Regional Weather Roundup
Issued by NWS

Home | Current Version | Previous Version | Graphics & Text | Print | Product List | Glossary On
Versions: 1 2 3 4 5 6 7 8 9 10 11 12 13 14 15 16 17 18 19 20 21 22 23 24 25 26 27 28 29 30 31 32 33 34 35 36 37 38 39 40 41 42 43 44 45 46 47 48 49 50
000
ASUS45 KABQ 220501
RWRNM
WEATHER ROUNDUP FOR NEW MEXICO
NATIONAL WEATHER SERVICE ALBUQUERQUE NM
1100 PM MDT SUN SEP 21 2014

NOTE: "FAIR" MEANS FEW OR NO CLOUDS BELOW 12,000 FEET AGL WITH NO
       SIGNIFICANT WEATHER OR OBSTRUCTIONS TO VISION.

      THIS PRODUCT IS RELEASED AS TWO VERSIONS.  ONE VERSION NEAR
      THE TOP OF THE HOUR CONTAINING PRELIMINARY DATA FROM ALBUQUERQUE
      AND OTHER STATIONS.  A FINAL VERSION WITH ADDITIONAL DATA IS
      ISSUED ABOUT 10 MINUTES AFTER THE HOUR.

NMZ501-503-504-510>518-220600-
NORTHWEST PLATEAU/NORTHCENTRAL MOUNTAINS

CITY           SKY/WX    TMP DP  RH WIND       PRES   REMARKS
FARMINGTON     MOCLDY    67  52  58 NE3       30.24S
LOS ALAMOS     CLOUDY    62  53  73 S12       30.44S
SANTA FE       LGT RAIN  64  55  72 SE15      30.38R
TAOS           MOCLDY    63  45  51 SE17      30.41R
ANGEL FIRE     FAIR      48  43  85 CALM      30.53R

$$
NMZ402-403-502-505>509-220600-
WESTCENTRAL MOUNTAINS/SOUTHWEST MOUNTAINS

CITY           SKY/WX    TMP DP  RH WIND       PRES   REMARKS
GALLUP         MOCLDY    59  57  93 NW3       30.31R
GRANTS         PTCLDY    59  55  88 S10       30.37R
SILVER CITY    CLOUDY    70  59  68 E7        30.27R

$$
NMZ407-409-411-412-220600-
SOUTHERN DESERTS

CITY           SKY/WX    TMP DP  RH WIND       PRES   REMARKS
LORDSBURG      FAIR      72  64  78 MISG      30.16S
DEMING         LGT RAIN  69  66  90 E13       30.20R
LAS CRUCES     CLOUDY    72  61  67 SE6       30.21S
HOLLOMAN AFB   MOCLDY    71  64  78 NW5       30.19R
ALAMOGORDO     MOCLDY    72  63  73 NW12      30.20S
T OR C         CLOUDY    70  59  68 N13       30.23S

$$
NMZ519>523-220600-
CENTRAL VALLEYS/CENTRAL HIGHLANDS

CITY           SKY/WX    TMP DP  RH WIND       PRES   REMARKS
ALBUQUERQUE    CLOUDY    70  52  52 SE7       30.31R
DOUBLE EAGLE   MOCLDY    66  54  66 E8        30.33F
CLINES CORNERS CLOUDY    58  55  90 SE13      30.43R
BELEN          FAIR      68  55  64 S7        30.29R
SOCORRO        FAIR      68  59  74 CALM      30.28R

$$
NMZ524>526-539-540-220600-
SOUTHCENTRAL MOUNTAINS

CITY           SKY/WX    TMP DP  RH WIND       PRES   REMARKS
RUIDOSO        NOT AVBL

$$
NMZ527>531-220600-
NORTHEAST HIGHLANDS/NORTHEAST PLAINS

CITY           SKY/WX    TMP DP  RH WIND       PRES   REMARKS
LAS VEGAS      LGT RAIN  58  57  97 CALM      30.44S
RATON          LGT RAIN  60  57  89 W3        30.41S
CLAYTON        MOCLDY    62  53  72 SE10      30.38S

$$
NMZ532>537-220600-
EASTCENTRAL PLAINS

CITY           SKY/WX    TMP DP  RH WIND       PRES   REMARKS
TUCUMCARI      MOCLDY    66  64  93 E6        30.30S
CANNON AFB     NOT AVBL
CLOVIS AIRPORT   N/A     64  63  94 NE5       30.34F

$$
NMZ028-029-538-220600-
SOUTHEAST PLAINS

CITY           SKY/WX    TMP DP  RH WIND       PRES   REMARKS
ROSWELL        CLOUDY    69  65  86 CALM      30.27R
CARLSBAD       CLOUDY    69  32  25 NE3       30.24R
HOBBS          LGT RAIN  68  68 100 E6        30.27S


$$



USA.gov is the U.S. government's official web portal to all federal, state and local government web resources and services.